Starlink 30584

operational
NORAD ID: 58089 Int'l Des: 2023-160 Owner: SPXS Country: US Constellation: starlink
LEOCIRCULAR

About Starlink 30584

Description loading...

Live Position

Loading 3D Globe...

Upcoming Passes

Altitude History

Altitude vs Time

uPlot chart will show altitude changes over time

Two-Line Element Set

1 58089U 23160Q 25260.13771924 -.00000768 00000-0 -41801-4 0 9992
2 58089 43.0013 303.0766 0001501 279.8218 80.2455 15.02536214106811
Epoch: Sep 17, 2025 • Age: 30 hours

Current Status

Altitude 569.1 km
Velocity 7.58 km/s
Sub-Earth Point -37.45°S, 103.82°E
Launch Date Oct 18, 2023
Age 1.9 years
Type internet

Technical Details

Classification Payload
Mass 730.00 kg
Dry Mass 700.00 kg
Total Mass 730.00 kg
Length 0.30 m
Diameter 4.10 m
Span 29.00 m
Shape Box + pan
Manufacturer SPXS
Bus Type Starlink V2M
Phase Status In Orbit
Owner/State SPXS/US

Large Constellations

Loading constellations...